Find Starlink 31186

NORAD ID: 59030 Int'l Des: 2024-038 Owner: SPXS Country: US Constellation: starlink operational
LEOCIRCULAR

現在のビュー

3D地球を読み込み中...

About Starlink 31186

Starlink 31186 (NORAD 59030) is a starlink constellation satellite (v2 mini) launched Feb 25, 2024 by SPXS of US. It operates in LEO, CIRCULAR orbit with a mass of 730.00 kg.

次回通過

Passes for default location (London). Set your location on the main map for personalized predictions.

高度履歴

Loading altitude history...

軌道要素

1 59030U 24038H 26264.96685345 -.00001615 00000-0 -49175-4 0 9995
2 59030 43.0047 358.7700 0001590 263.2240 96.8431 15.27570528144777
Epoch: Sep 21, 2026 • Age: 18 hours

現在のステータス

高度 492.2 km
遠地点 / 近地点 N/A
速度 7.62 km/s
衛星直下点 -35.15°S, 40.97°W
打ち上げ日 Feb 25, 2024
運用期間 2.5 years
タイプ internet

技術仕様

分類 Payload
質量 730.00 kg
乾燥質量 700.00 kg
長さ 0.30 m
スパン 29.00 m
形状 ? Box + pan
製造者 SPXS
バスタイプ Starlink V2M
フェーズステータス In Orbit
所有者/国 SPXS/US

Most Searched